Time,TemperatureF,DewpointF,PressureIn,WindDirection,WindDirectionDegrees,WindSpeedMPH,WindSpeedGustMPH,Humidity,HourlyPrecipIn,Conditions,Clouds,dailyrainin,SoftwareType,DateUTC
2013-03-25 06:23:00,29.0,28.0,29.62,NNE,21,5.0,10.0,96,0.00,,,0.05,,2013-03-25 10:23:00,
2013-03-25 06:33:00,29.0,28.0,29.62,NNE,18,3.0,10.0,96,0.00,,,0.05,,2013-03-25 10:33:00,
2013-03-25 06:43:00,29.0,28.0,29.62,NNE,18,3.0,10.0,96,0.00,,,0.05,,2013-03-25 10:43:00,
2013-03-25 06:54:00,29.0,28.0,29.63,NNE,26,6.0,10.0,96,0.00,,,0.05,,2013-03-25 10:54:00,
2013-03-25 07:03:00,29.0,28.0,29.63,North,10,5.0,11.0,96,0.00,,,0.05,,2013-03-25 11:03:00,
2013-03-25 07:12:00,29.0,28.0,29.63,NNE,24,4.0,10.0,96,0.00,,,0.05,,2013-03-25 11:12:00,
2013-03-25 07:23:00,29.0,28.0,29.63,NNE,24,4.0,10.0,96,0.00,,,0.05,,2013-03-25 11:23:00,
2013-03-25 07:32:00,29.0,28.0,29.64,NNE,17,4.0,13.0,96,0.00,,,0.05,,2013-03-25 11:32:00,
2013-03-25 07:42:00,29.0,28.0,29.64,NNE,17,4.0,13.0,96,0.00,,,0.05,,2013-03-25 11:42:00,
2013-03-25 07:52:00,29.0,28.0,29.64,NNE,31,2.0,7.0,96,0.00,,,0.05,,2013-03-25 11:52:00,
2013-03-25 08:02:00,29.0,28.0,29.65,NE,48,2.0,8.0,96,0.00,,,0.05,,2013-03-25 12:02:00,
2013-03-25 08:12:00,29.0,28.0,29.65,NNE,18,2.0,6.0,96,0.00,,,0.05,,2013-03-25 12:12:00,
2013-03-25 08:23:00,29.0,28.0,29.65,NNE,18,2.0,6.0,96,0.00,,,0.05,,2013-03-25 12:23:00,
2013-03-25 08:32:00,29.0,28.0,29.66,North,10,3.0,9.0,96,0.00,,,0.05,,2013-03-25 12:32:00,
2013-03-25 08:42:00,29.0,28.0,29.66,North,10,3.0,9.0,96,0.00,,,0.05,,2013-03-25 12:42:00,
2013-03-25 08:53:00,29.0,28.0,29.66,NNE,32,6.0,10.0,96,0.00,,,0.05,,2013-03-25 12:53:00,
2013-03-25 09:02:00,30.0,29.0,29.67,NNE,28,4.0,10.0,96,0.00,,,0.05,,2013-03-25 13:02:00,
2013-03-25 09:13:00,30.0,29.0,29.67,NNE,28,4.0,10.0,96,0.00,,,0.05,,2013-03-25 13:13:00,
2013-03-25 09:22:00,30.0,29.0,29.67,North,11,3.0,8.0,96,0.00,,,0.05,,2013-03-25 13:22:00,
2013-03-25 09:32:00,30.0,29.0,29.68,NNW,346,3.0,11.0,96,0.00,,,0.05,,2013-03-25 13:32:00,
2013-03-25 09:42:00,30.0,29.0,29.68,NNW,346,3.0,11.0,96,0.00,,,0.05,,2013-03-25 13:42:00,
2013-03-25 09:52:00,31.0,30.0,29.68,NNE,18,3.0,8.0,96,0.00,,,0.05,,2013-03-25 13:52:00,
2013-03-25 10:03:00,31.0,30.0,29.68,NNE,18,3.0,8.0,96,0.00,,,0.05,,2013-03-25 14:03:00,
2013-03-25 10:12:00,31.0,30.0,29.68,NNE,18,3.0,8.0,96,0.00,,,0.05,,2013-03-25 14:12:00,
2013-03-25 10:22:00,32.0,31.0,29.70,NNE,22,4.0,8.0,95,0.00,,,0.05,,2013-03-25 14:22:00,
2013-03-25 10:33:00,32.0,31.0,29.70,NNE,14,3.0,10.0,95,0.00,,,0.05,,2013-03-25 14:33:00,
2013-03-25 10:43:00,32.0,31.0,29.70,NNE,14,3.0,10.0,95,0.00,,,0.05,,2013-03-25 14:43:00,
2013-03-25 10:53:00,33.0,32.0,29.71,North,355,4.0,9.0,95,0.00,,,0.05,,2013-03-25 14:53:00,
2013-03-25 11:02:00,33.0,32.0,29.71,NNW,327,3.0,10.0,95,0.00,,,0.05,,2013-03-25 15:02:00,
2013-03-25 11:12:00,33.0,32.0,29.71,NNW,327,3.0,10.0,95,0.00,,,0.05,,2013-03-25 15:12:00,
2013-03-25 11:22:00,33.0,31.0,29.72,North,360,6.0,13.0,94,0.00,,,0.05,,2013-03-25 15:22:00,
2013-03-25 11:32:00,34.0,32.0,29.73,NNE,28,6.0,9.0,94,0.00,,,0.05,,2013-03-25 15:32:00,
2013-03-25 11:42:00,34.0,32.0,29.73,NNE,28,6.0,9.0,94,0.00,,,0.05,,2013-03-25 15:42:00,
2013-03-25 11:53:00,34.0,32.0,29.73,NNE,14,6.0,11.0,94,0.00,,,0.05,,2013-03-25 15:53:00,
2013-03-25 12:03:00,34.0,32.0,29.74,North,5,5.0,13.0,93,0.00,,,0.05,,2013-03-25 16:03:00,
2013-03-25 12:12:00,34.0,32.0,29.74,North,5,5.0,13.0,93,0.00,,,0.05,,2013-03-25 16:12:00,
2013-03-25 12:23:00,34.0,32.0,29.74,North,5,5.0,13.0,93,0.00,,,0.05,,2013-03-25 16:23:00,
2013-03-25 12:33:00,35.0,33.0,29.75,NNE,12,6.0,12.0,91,0.00,,,0.03,,2013-03-25 16:33:00,
2013-03-25 12:43:00,35.0,33.0,29.75,NNE,12,6.0,12.0,91,0.00,,,0.03,,2013-03-25 16:43:00,
2013-03-25 12:53:00,34.0,32.0,29.75,NNW,345,4.0,8.0,91,0.01,,,0.04,,2013-03-25 16:53:00,
2013-03-25 13:02:00,34.0,32.0,29.76,NNE,13,4.0,8.0,92,0.02,,,0.05,,2013-03-25 17:02:00,
2013-03-25 13:12:00,34.0,32.0,29.76,NNE,13,4.0,8.0,92,0.02,,,0.05,,2013-03-25 17:12:00,
2013-03-25 13:23:00,34.0,32.0,29.76,ESE,109,3.0,10.0,92,0.04,,,0.07,,2013-03-25 17:23:00,
2013-03-25 13:32:00,35.0,31.0,29.77,NNE,19,4.0,13.0,86,0.06,,,0.08,,2013-03-25 17:32:00,
2013-03-25 13:42:00,35.0,31.0,29.77,NNE,19,4.0,13.0,86,0.06,,,0.08,,2013-03-25 17:42:00,
2013-03-25 13:53:00,35.0,31.0,29.77,NNE,22,5.0,12.0,85,0.07,,,0.10,,2013-03-25 17:53:00,
2013-03-25 14:03:00,36.0,31.0,29.77,North,355,4.0,17.0,82,0.07,,,0.12,,2013-03-25 18:03:00,
2013-03-25 14:12:00,36.0,31.0,29.77,North,355,4.0,17.0,82,0.07,,,0.12,,2013-03-25 18:12:00,
2013-03-25 14:22:00,36.0,30.0,29.78,NNE,24,7.0,14.0,80,0.07,,,0.13,,2013-03-25 18:22:00,
2013-03-25 14:32:00,37.0,31.0,29.78,NE,46,7.0,14.0,80,0.07,,,0.14,,2013-03-25 18:32:00,
2013-03-25 14:42:00,37.0,31.0,29.78,NE,46,7.0,14.0,80,0.07,,,0.14,,2013-03-25 18:42:00,
2013-03-25 14:53:00,37.0,31.0,29.79,NNE,28,2.0,14.0,79,0.07,,,0.16,,2013-03-25 18:53:00,
2013-03-25 15:03:00,37.0,30.0,29.79,North,11,5.0,12.0,77,0.07,,,0.18,,2013-03-25 19:03:00,
2013-03-25 15:12:00,37.0,30.0,29.79,North,11,5.0,12.0,77,0.07,,,0.18,,2013-03-25 19:12:00,
2013-03-25 15:22:00,37.0,31.0,29.79,NNE,17,5.0,10.0,78,0.08,,,0.20,,2013-03-25 19:22:00,
2013-03-25 15:33:00,37.0,30.0,29.80,NNE,22,4.0,11.0,76,0.06,,,0.19,,2013-03-25 19:33:00,
2013-03-25 15:42:00,37.0,30.0,29.80,NNE,22,4.0,11.0,76,0.06,,,0.19,,2013-03-25 19:42:00,
2013-03-25 15:52:00,38.0,31.0,29.80,NNE,17,3.0,8.0,76,0.07,,,0.22,,2013-03-25 19:52:00,
2013-03-25 16:02:00,37.0,30.0,29.81,NE,53,6.0,12.0,77,0.06,,,0.23,,2013-03-25 20:02:00,
2013-03-25 16:12:00,37.0,30.0,29.81,NE,53,6.0,12.0,77,0.06,,,0.23,,2013-03-25 20:12:00,
2013-03-25 16:22:00,36.0,30.0,29.82,NNE,13,7.0,14.0,80,0.06,,,0.25,,2013-03-25 20:22:00,
2013-03-25 16:32:00,36.0,31.0,29.83,NE,40,7.0,15.0,81,0.07,,,0.27,,2013-03-25 20:32:00,
2013-03-25 16:42:00,36.0,31.0,29.83,NE,40,7.0,15.0,81,0.07,,,0.27,,2013-03-25 20:42:00,
2013-03-25 16:52:00,36.0,31.0,29.83,NNE,14,8.0,16.0,81,0.06,,,0.28,,2013-03-25 20:52:00,
2013-03-25 17:02:00,36.0,31.0,29.84,NNE,14,8.0,16.0,82,0.06,,,0.29,,2013-03-25 21:02:00,
2013-03-25 17:12:00,36.0,31.0,29.84,NNE,14,8.0,16.0,82,0.06,,,0.29,,2013-03-25 21:12:00,
2013-03-25 17:22:00,36.0,31.0,29.85,NNE,17,5.0,11.0,83,0.06,,,0.31,,2013-03-25 21:22:00,
2013-03-25 17:33:00,36.0,31.0,29.86,NNE,21,5.0,15.0,83,0.05,,,0.32,,2013-03-25 21:33:00,
2013-03-25 17:42:00,36.0,31.0,29.86,NNE,21,5.0,15.0,83,0.05,,,0.32,,2013-03-25 21:42:00,
2013-03-25 17:52:00,35.0,32.0,29.87,NNE,25,5.0,11.0,87,0.04,,,0.32,,2013-03-25 21:52:00,
2013-03-25 18:03:00,35.0,32.0,29.88,NNE,25,6.0,11.0,88,0.04,,,0.33,,2013-03-25 22:03:00,
2013-03-25 18:12:00,35.0,32.0,29.88,NNE,25,6.0,11.0,88,0.04,,,0.33,,2013-03-25 22:12:00,
2013-03-25 18:23:00,34.0,31.0,29.88,ENE,59,3.0,8.0,90,0.03,,,0.34,,2013-03-25 22:23:00,
2013-03-25 18:33:00,34.0,32.0,29.89,NNE,22,4.0,9.0,91,0.02,,,0.34,,2013-03-25 22:33:00,
2013-03-25 18:42:00,34.0,32.0,29.89,NNE,22,4.0,9.0,91,0.02,,,0.34,,2013-03-25 22:42:00,
2013-03-25 18:52:00,34.0,32.0,29.90,ENE,63,4.0,9.0,92,0.03,,,0.35,,2013-03-25 22:52:00,
2013-03-25 19:02:00,34.0,32.0,29.90,North,355,3.0,9.0,92,0.02,,,0.35,,2013-03-25 23:02:00,
2013-03-25 19:12:00,34.0,32.0,29.90,North,355,3.0,9.0,92,0.02,,,0.35,,2013-03-25 23:12:00,
2013-03-25 19:23:00,34.0,32.0,29.91,North,10,8.0,18.0,91,0.02,,,0.36,,2013-03-25 23:23:00,
2013-03-25 19:32:00,34.0,31.0,29.92,ENE,76,6.0,15.0,90,0.03,,,0.37,,2013-03-25 23:32:00,
2013-03-25 19:42:00,34.0,31.0,29.92,ENE,76,6.0,15.0,90,0.03,,,0.37,,2013-03-25 23:42:00,
2013-03-25 19:52:00,33.0,31.0,29.93,NNE,32,5.0,15.0,92,0.02,,,0.37,,2013-03-25 23:52:00,
2013-03-25 20:02:00,34.0,32.0,29.94,North,10,3.0,11.0,91,0.02,,,0.37,,2013-03-26 00:02:00,
2013-03-25 20:12:00,34.0,32.0,29.94,North,10,3.0,11.0,91,0.02,,,0.37,,2013-03-26 00:12:00,
2013-03-25 20:22:00,34.0,31.0,29.95,NNE,26,6.0,15.0,89,0.01,,,0.37,,2013-03-26 00:22:00,
2013-03-25 20:32:00,33.0,30.0,29.96,NE,42,7.0,14.0,88,0.00,,,0.37,,2013-03-26 00:32:00,
2013-03-25 20:42:00,33.0,30.0,29.96,NE,42,7.0,14.0,88,0.00,,,0.37,,2013-03-26 00:42:00,
2013-03-25 20:52:00,33.0,30.0,29.96,NNE,27,5.0,12.0,87,0.00,,,0.37,,2013-03-26 00:52:00,
2013-03-25 21:02:00,33.0,30.0,29.97,North,360,6.0,11.0,87,0.00,,,0.37,,2013-03-26 01:02:00,
2013-03-25 21:12:00,33.0,30.0,29.97,North,360,6.0,11.0,87,0.00,,,0.37,,2013-03-26 01:12:00,
2013-03-25 21:22:00,33.0,30.0,29.97,NNE,30,6.0,18.0,87,0.00,,,0.37,,2013-03-26 01:22:00,
2013-03-25 21:32:00,33.0,29.0,29.98,NNE,20,5.0,14.0,86,0.01,,,0.38,,2013-03-26 01:32:00,
2013-03-25 21:42:00,33.0,29.0,29.98,NNE,20,5.0,14.0,86,0.01,,,0.38,,2013-03-26 01:42:00,
2013-03-25 21:52:00,33.0,29.0,29.99,North,355,8.0,13.0,86,0.01,,,0.38,,2013-03-26 01:52:00,
2013-03-25 22:02:00,33.0,29.0,30.00,North,11,4.0,11.0,86,0.01,,,0.38,,2013-03-26 02:02:00,
2013-03-25 22:12:00,33.0,29.0,30.00,North,11,4.0,11.0,86,0.01,,,0.38,,2013-03-26 02:12:00,
2013-03-25 22:22:00,33.0,29.0,30.00,NNE,26,5.0,12.0,86,0.01,,,0.38,,2013-03-26 02:22:00,
2013-03-25 22:32:00,33.0,29.0,30.01,NE,44,6.0,14.0,86,0.00,,,0.38,,2013-03-26 02:32:00,
2013-03-25 22:42:00,33.0,29.0,30.01,NE,44,6.0,14.0,86,0.00,,,0.38,,2013-03-26 02:42:00,
2013-03-25 22:52:00,33.0,29.0,30.01,NE,50,5.0,12.0,85,0.00,,,0.38,,2013-03-26 02:52:00,
2013-03-25 23:02:00,33.0,29.0,30.01,NNE,33,6.0,13.0,84,0.00,,,0.38,,2013-03-26 03:02:00,
2013-03-25 23:12:00,33.0,29.0,30.01,NNE,33,6.0,13.0,84,0.00,,,0.38,,2013-03-26 03:12:00,
2013-03-25 23:22:00,33.0,29.0,30.02,NNE,14,4.0,10.0,84,0.00,,,0.38,,2013-03-26 03:22:00,
2013-03-25 23:33:00,32.0,28.0,30.02,North,360,5.0,9.0,84,0.00,,,0.38,,2013-03-26 03:33:00,
2013-03-25 23:42:00,32.0,28.0,30.02,North,360,5.0,9.0,84,0.00,,,0.38,,2013-03-26 03:42:00,
2013-03-25 23:53:00,32.0,28.0,30.02,NNE,22,2.0,6.0,85,0.00,,,0.38,,2013-03-26 03:53:00,